Tracking 27086 objects as of 22-Mar-2023
HD Live streaming from Space Station
objects crossing your sky now

ARIANE 5 DEB (SYLDA)

Track ARIANE 5 DEB (SYLDA) now!


NORAD ID: 43177
Int'l Code: 2018-012D
Perigee: 303.3 km
Apogee: 38,150.2 km
Inclination: 21.6 °
Period: 679.3 minutes
Semi major axis: 25597 km
RCS: Unknown
Launch date: January 25, 2018
Source: France (FR)
Launch site: FRENCH GUIANA (FRGUI)

Note: This is SATELLITE DEBRIS
Your satellite tracking list
Your tracking list is empty




NASA's NSSDC Master Catalog

Two Line Element Set (TLE):
1 43177U 18012D   23077.98049838  .00008590  00000-0  65426-2 0  9999
2 43177  21.6235 345.7900 7392632 234.1801  33.4237  2.11982507 36682
Source of the keplerian elements: AFSPC